Weather History for Frenchville, ME

Change the Weather History Date:

Tuesday, May 8, 2012

  Actual Average Record
Temperature  
Mean Temperature 51 °F 48 °F  
Max Temperature 62 °F 58 °F 81 °F (2013)
Min Temperature 39 °F 38 °F 27 °F (2004)
Degree Days  
Heating Degree Days 14    
Month to date heating degree days 143  
Since 1 July heating degree days 8377  
Cooling Degree Days 0    
Month to date cooling degree days 0  
Year to date cooling degree days 0  
Moisture  
Dew Point 35 °F    
Average Humidity 69    
Maximum Humidity 100    
Minimum Humidity 23    
Precipitation  
Precipitation 0.11 in 0.08 in 0.45 in (2008)
Month to date precipitation 0.27 0.74  
Year to date precipitation 6.38 7.60  
Sea Level Pressure  
Sea Level Pressure 29.94 in    
Wind  
Wind Speed 14 mph (SSE)    
Max Wind Speed 29 mph    
Max Gust Speed 41 mph    
Visibility 9 miles    
Events Rain    
T = Trace of Precipitation, MM = Missing Value Source: NWS Daily Summary

Daily Weather History Graph

Daily Weather History Graph

Search for Another Location

Airport:

Trip Planner

Search our weather history database for the weather conditions in past years. The results will help you decide how hot, cold, wet, or windy it might be!

Date:

Astronomy

May. 08, 2012 Rise Set
Actual Time 5:05 AM EDT 7:54 PM EDT
Civil Twilight 4:30 AM EDT 8:30 PM EDT
Nautical Twilight 3:45 AM EDT 9:15 PM EDT
Astronomical Twilight 2:52 AM EDT 10:09 PM EDT
Moon 11:07 PM EDT (5/8) 7:03 AM EDT (5/8)
Length of Visible Light 15h 59m
Length of Day
14h 48m
Waning Gibbous, 91% of the Moon is Illuminated
May 8
Waning Gibbous
May 12
Last Quarter
May 20
New
May 28
First Quarter
Jun 4
Full

Hourly Weather History & Observations

Time (EDT) Temp. Windchill Dew Point Humidity Pressure Visibility Wind Dir Wind Speed Gust Speed Precip Events Conditions
12:53 AM 48.9 °F - 19.0 °F 31% 30.02 in 10.0 mi ESE 5.8 mph - N/A   Clear
1:53 AM 48.0 °F - 19.0 °F 32% 30.02 in 10.0 mi ESE 5.8 mph - N/A   Clear
2:53 AM 44.1 °F 38.6 °F 21.9 °F 42% 30.00 in 10.0 mi East 10.4 mph - N/A   Clear
3:53 AM 41.0 °F 35.2 °F 21.9 °F 47% 30.00 in 10.0 mi East 9.2 mph - N/A   Clear
4:53 AM 41.0 °F 35.2 °F 21.9 °F 47% 30.00 in 10.0 mi East 9.2 mph - N/A   Clear
5:53 AM 39.9 °F 35.1 °F 24.1 °F 53% 30.00 in 10.0 mi ESE 6.9 mph - N/A   Clear
6:53 AM 43.0 °F 38.2 °F 27.0 °F 53% 30.00 in 10.0 mi ESE 8.1 mph - N/A   Clear
7:53 AM 45.0 °F 39.3 °F 30.0 °F 56% 29.99 in 10.0 mi SE 11.5 mph - N/A   Clear
8:53 AM 50.0 °F - 32.0 °F 50% 29.99 in 10.0 mi SE 11.5 mph - N/A   Clear
9:53 AM 55.0 °F - 33.1 °F 43% 29.97 in 10.0 mi SSE 12.7 mph - N/A   Scattered Clouds
10:53 AM 59.0 °F - 27.0 °F 29% 29.96 in 10.0 mi South 12.7 mph 27.6 mph N/A   Mostly Cloudy
11:53 AM 62.1 °F - 24.1 °F 23% 29.94 in 10.0 mi South 23.0 mph 33.4 mph N/A   Partly Cloudy
12:53 PM 60.1 °F - 23.0 °F 24% 29.93 in 10.0 mi South 26.5 mph 39.1 mph N/A   Partly Cloudy
1:53 PM 59.0 °F - 28.0 °F 31% 29.93 in 10.0 mi South 18.4 mph 29.9 mph N/A   Overcast
2:53 PM 57.0 °F - 37.9 °F 49% 29.92 in 10.0 mi SSW 19.6 mph 32.2 mph N/A   Overcast
3:53 PM 51.1 °F - 43.0 °F 74% 29.94 in 10.0 mi South 18.4 mph 27.6 mph 0.00 in Rain Light Rain
4:53 PM 48.0 °F - 44.1 °F 86% 29.94 in 8.0 mi South 17.3 mph 25.3 mph 0.03 in Rain Light Rain
5:10 PM 46.4 °F 39.5 °F 44.6 °F 93% 29.92 in 9.0 mi South 17.3 mph 27.6 mph 0.01 in Rain Light Rain
5:16 PM 46.4 °F 39.8 °F 44.6 °F 93% 29.92 in 10.0 mi South 16.1 mph 27.6 mph 0.01 in Rain Light Rain
5:26 PM 46.4 °F 38.3 °F 42.8 °F 87% 29.92 in 6.0 mi South 23.0 mph 36.8 mph 0.02 in Rain Light Rain
5:53 PM 45.0 °F 38.2 °F 43.0 °F 93% 29.94 in 7.0 mi South 15.0 mph 25.3 mph 0.04 in Rain Light Rain
6:06 PM 44.6 °F 37.2 °F 42.8 °F 93% 29.92 in 9.0 mi South 17.3 mph 27.6 mph 0.01 in Rain Light Rain
6:22 PM 44.6 °F 36.6 °F 41.0 °F 87% 29.91 in 10.0 mi South 19.6 mph 29.9 mph 0.01 in Rain Light Rain
6:33 PM 44.6 °F 37.8 °F 41.0 °F 87% 29.91 in 10.0 mi SSE 15.0 mph 29.9 mph 0.01 in Rain Light Rain
6:43 PM 44.6 °F 36.9 °F 42.8 °F 93% 29.91 in 10.0 mi SSE 18.4 mph 26.5 mph 0.01 in Rain Light Rain
6:53 PM 44.1 °F 36.5 °F 41.0 °F 89% 29.93 in 10.0 mi SSE 17.3 mph 24.2 mph 0.01 in Rain Light Rain
7:04 PM 44.6 °F 37.2 °F 41.0 °F 87% 29.91 in 10.0 mi SSE 17.3 mph 27.6 mph 0.00 in Rain Light Rain
7:53 PM 43.0 °F 36.0 °F 41.0 °F 93% 29.91 in 8.0 mi SSE 13.8 mph 21.9 mph 0.02 in Rain Light Rain
8:26 PM 42.8 °F 35.8 °F 41.0 °F 93% 29.89 in 10.0 mi SSE 13.8 mph - 0.00 in   Overcast
8:53 PM 43.0 °F 36.0 °F 41.0 °F 93% 29.91 in 10.0 mi SSE 13.8 mph 19.6 mph 0.01 in Rain Light Rain
9:53 PM 39.9 °F 33.4 °F 37.9 °F 93% 29.92 in 10.0 mi South 10.4 mph 23.0 mph 0.00 in   Overcast
10:46 PM 39.2 °F 32.0 °F 39.2 °F 100% 29.90 in 5.0 mi South 11.5 mph - N/A   Overcast
10:53 PM 39.9 °F 33.4 °F 39.0 °F 97% 29.90 in 5.0 mi SSE 10.4 mph - N/A   Overcast
11:53 PM 39.9 °F 32.5 °F 39.0 °F 97% 29.88 in 10.0 mi SSE 12.7 mph - N/A   Overcast